Location: Peebles
(55.6412°N, 3.1714°W)
Time: 14:44:15
(UTC+01:00)

deb Agena D - Pass Details

Date: 23 September 2024
Orbit: 793 x 976 km, 99.8° (Epoch: 03 October)

Event Time Altitude Azimuth Distance (km) Brightness Sun altitude
Rises 05:35:11 0° 15° (NNE) 3,453 9.9 -12.7°
Reaches altitude 10° 05:37:58 10° 2° (N) 2,543 8.9 -12.3°
Maximum altitude 05:42:16 23° 312° (NW) 1,821 7.7 -11.7°
Enters shadow 05:45:48 14° 269° (W) 2,368 7.9 -11.2°
